Time,TemperatureF,DewpointF,PressureIn,WindDirection,WindDirectionDegrees,WindSpeedMPH,WindSpeedGustMPH,Humidity,HourlyPrecipIn,Conditions,Clouds,dailyrainin,SoftwareType,DateUTC
2013-01-28 00:03:00,46.0,43.0,-100.00,ENE,58,2.0,2.0,89,-99.99,,,-99.99,,2013-01-28 05:03:00,
2013-01-28 00:11:00,46.0,43.0,-100.00,NNE,30,1.0,2.0,90,-99.99,,,-99.99,,2013-01-28 05:11:00,
2013-01-28 00:21:00,45.0,43.0,-100.00,NE,53,1.0,2.0,91,-99.99,,,-99.99,,2013-01-28 05:21:00,
2013-01-28 00:31:00,45.0,43.0,-100.00,NE,52,2.0,4.0,91,-99.99,,,-99.99,,2013-01-28 05:31:00,
2013-01-28 00:41:00,45.0,43.0,-100.00,NE,44,4.0,5.0,92,-99.99,,,-99.99,,2013-01-28 05:41:00,
2013-01-28 00:52:00,45.0,43.0,-100.00,NNE,26,2.0,4.0,92,-99.99,,,-99.99,,2013-01-28 05:52:00,
2013-01-28 01:01:00,45.0,43.0,-100.00,NE,35,2.0,4.0,92,-99.99,,,-99.99,,2013-01-28 06:01:00,
2013-01-28 01:11:00,44.0,42.0,-100.00,NE,38,4.0,6.0,92,-99.99,,,-99.99,,2013-01-28 06:11:00,
2013-01-28 01:21:00,44.0,42.0,-100.00,NE,46,4.0,5.0,92,-99.99,,,-99.99,,2013-01-28 06:21:00,
2013-01-28 01:31:00,44.0,42.0,-100.00,NE,39,5.0,6.0,92,-99.99,,,-99.99,,2013-01-28 06:31:00,
2013-01-28 01:42:00,43.0,41.0,-100.00,NE,39,4.0,6.0,93,-99.99,,,-99.99,,2013-01-28 06:42:00,
2013-01-28 01:52:00,43.0,41.0,-100.00,NE,39,4.0,6.0,93,-99.99,,,-99.99,,2013-01-28 06:52:00,
2013-01-28 02:02:00,43.0,41.0,-100.00,ENE,70,2.0,5.0,93,-99.99,,,-99.99,,2013-01-28 07:02:00,
2013-01-28 02:11:00,42.0,40.0,-100.00,NE,46,4.0,5.0,93,-99.99,,,-99.99,,2013-01-28 07:11:00,
2013-01-28 02:21:00,42.0,40.0,-100.00,NE,46,3.0,5.0,94,-99.99,,,-99.99,,2013-01-28 07:21:00,
2013-01-28 02:31:00,41.0,39.0,-100.00,NE,35,4.0,7.0,94,-99.99,,,-99.99,,2013-01-28 07:31:00,
2013-01-28 02:41:00,41.0,39.0,-100.00,NE,46,2.0,5.0,94,-99.99,,,-99.99,,2013-01-28 07:41:00,
2013-01-28 02:51:00,41.0,39.0,-100.00,NE,46,3.0,5.0,94,-99.99,,,-99.99,,2013-01-28 07:51:00,
2013-01-28 03:01:00,41.0,39.0,-100.00,NE,45,2.0,5.0,94,-99.99,,,-99.99,,2013-01-28 08:01:00,
2013-01-28 03:11:00,41.0,40.0,-100.00,NE,34,3.0,5.0,95,-99.99,,,-99.99,,2013-01-28 08:11:00,
2013-01-28 03:21:00,41.0,40.0,-100.00,NE,53,2.0,5.0,95,-99.99,,,-99.99,,2013-01-28 08:21:00,
2013-01-28 03:31:00,41.0,40.0,-100.00,NE,45,3.0,5.0,95,-99.99,,,-99.99,,2013-01-28 08:31:00,
2013-01-28 03:42:00,41.0,40.0,-100.00,NE,37,3.0,5.0,95,-99.99,,,-99.99,,2013-01-28 08:42:00,
2013-01-28 03:52:00,41.0,40.0,-100.00,NE,42,2.0,4.0,95,-99.99,,,-99.99,,2013-01-28 08:52:00,
2013-01-28 04:01:00,41.0,40.0,-100.00,NE,43,3.0,6.0,95,-99.99,,,-99.99,,2013-01-28 09:01:00,
2013-01-28 04:11:00,41.0,40.0,-100.00,NNE,33,2.0,4.0,95,-99.99,,,-99.99,,2013-01-28 09:11:00,
2013-01-28 04:21:00,41.0,40.0,-100.00,NE,49,2.0,4.0,95,-99.99,,,-99.99,,2013-01-28 09:21:00,
2013-01-28 04:31:00,41.0,40.0,-100.00,NE,34,2.0,4.0,95,-99.99,,,-99.99,,2013-01-28 09:31:00,
2013-01-28 04:41:00,41.0,40.0,-100.00,ENE,65,1.0,2.0,95,-99.99,,,-99.99,,2013-01-28 09:41:00,
2013-01-28 04:51:00,42.0,41.0,-100.00,SSE,152,2.0,4.0,95,-99.99,,,-99.99,,2013-01-28 09:51:00,
2013-01-28 05:01:00,42.0,41.0,-100.00,North,1,3.0,4.0,95,-99.99,,,-99.99,,2013-01-28 10:01:00,
2013-01-28 05:11:00,43.0,42.0,-100.00,NNE,21,2.0,3.0,95,-99.99,,,-99.99,,2013-01-28 10:11:00,
2013-01-28 05:21:00,43.0,42.0,-100.00,NE,49,2.0,3.0,95,-99.99,,,-99.99,,2013-01-28 10:21:00,
2013-01-28 05:31:00,42.0,41.0,-100.00,NE,41,2.0,3.0,95,-99.99,,,-99.99,,2013-01-28 10:31:00,
2013-01-28 05:41:00,42.0,41.0,-100.00,NE,49,3.0,5.0,95,-99.99,,,-99.99,,2013-01-28 10:41:00,
2013-01-28 05:51:00,42.0,41.0,-100.00,NE,42,3.0,5.0,95,-99.99,,,-99.99,,2013-01-28 10:51:00,
2013-01-28 06:01:00,42.0,41.0,-100.00,NE,40,3.0,5.0,95,-99.99,,,-99.99,,2013-01-28 11:01:00,
2013-01-28 06:11:00,42.0,41.0,-100.00,NE,36,4.0,6.0,95,-99.99,,,-99.99,,2013-01-28 11:11:00,
2013-01-28 06:21:00,42.0,41.0,-100.00,NE,55,3.0,5.0,95,-99.99,,,-99.99,,2013-01-28 11:21:00,
2013-01-28 06:32:00,42.0,41.0,-100.00,NE,47,3.0,5.0,95,-99.99,,,-99.99,,2013-01-28 11:32:00,
2013-01-28 06:42:00,41.0,40.0,-100.00,NE,50,2.0,4.0,95,-99.99,,,-99.99,,2013-01-28 11:42:00,
2013-01-28 06:52:00,40.0,39.0,-100.00,NE,46,2.0,4.0,95,-99.99,,,-99.99,,2013-01-28 11:52:00,
2013-01-28 07:03:00,40.0,39.0,-100.00,NNE,32,3.0,5.0,96,-99.99,,,-99.99,,2013-01-28 12:03:00,
2013-01-28 07:11:00,41.0,40.0,-100.00,NE,48,3.0,5.0,96,-99.99,,,-99.99,,2013-01-28 12:11:00,
2013-01-28 07:22:00,40.0,39.0,-100.00,NE,34,3.0,4.0,96,-99.99,,,-99.99,,2013-01-28 12:22:00,
2013-01-28 07:32:00,39.0,38.0,-100.00,NE,51,4.0,5.0,96,-99.99,,,-99.99,,2013-01-28 12:32:00,
2013-01-28 07:42:00,39.0,38.0,-100.00,ENE,69,3.0,4.0,96,-99.99,,,-99.99,,2013-01-28 12:42:00,
2013-01-28 07:52:00,38.0,37.0,-100.00,NE,49,4.0,5.0,96,-99.99,,,-99.99,,2013-01-28 12:52:00,
2013-01-28 08:02:00,38.0,37.0,-100.00,NE,50,4.0,5.0,96,-99.99,,,-99.99,,2013-01-28 13:02:00,
2013-01-28 08:11:00,37.0,36.0,-100.00,NE,48,4.0,5.0,96,-99.99,,,-99.99,,2013-01-28 13:11:00,
2013-01-28 08:22:00,37.0,36.0,-100.00,ENE,58,2.0,4.0,96,-99.99,,,-99.99,,2013-01-28 13:22:00,
2013-01-28 08:32:00,37.0,36.0,-100.00,NE,55,4.0,5.0,96,-99.99,,,-99.99,,2013-01-28 13:32:00,
2013-01-28 08:42:00,37.0,36.0,-100.00,NE,55,4.0,5.0,96,-99.99,,,-99.99,,2013-01-28 13:42:00,
2013-01-28 08:52:00,37.0,36.0,-100.00,NE,53,4.0,5.0,97,-99.99,,,-99.99,,2013-01-28 13:52:00,
2013-01-28 09:02:00,36.0,35.0,-100.00,NE,50,5.0,7.0,96,-99.99,,,-99.99,,2013-01-28 14:02:00,
2013-01-28 09:11:00,36.0,35.0,-100.00,NE,46,5.0,7.0,96,-99.99,,,-99.99,,2013-01-28 14:11:00,
2013-01-28 09:22:00,36.0,35.0,-100.00,NE,50,4.0,7.0,97,-99.99,,,-99.99,,2013-01-28 14:22:00,
2013-01-28 09:32:00,36.0,35.0,-100.00,NE,38,3.0,5.0,97,-99.99,,,-99.99,,2013-01-28 14:32:00,
2013-01-28 09:42:00,36.0,35.0,-100.00,NE,42,3.0,5.0,97,-99.99,,,-99.99,,2013-01-28 14:42:00,
2013-01-28 09:52:00,36.0,35.0,-100.00,NE,55,3.0,4.0,97,-99.99,,,-99.99,,2013-01-28 14:52:00,
2013-01-28 10:02:00,36.0,35.0,-100.00,ENE,58,4.0,6.0,97,-99.99,,,-99.99,,2013-01-28 15:02:00,
2013-01-28 10:12:00,35.0,34.0,-100.00,NE,53,4.0,6.0,97,-99.99,,,-99.99,,2013-01-28 15:12:00,
2013-01-28 10:22:00,35.0,34.0,-100.00,NE,44,4.0,6.0,97,-99.99,,,-99.99,,2013-01-28 15:22:00,
2013-01-28 10:32:00,35.0,34.0,-100.00,NE,44,3.0,5.0,97,-99.99,,,-99.99,,2013-01-28 15:32:00,
2013-01-28 10:42:00,35.0,34.0,-100.00,NE,44,3.0,5.0,97,-99.99,,,-99.99,,2013-01-28 15:42:00,
2013-01-28 10:52:00,35.0,34.0,-100.00,NNE,31,3.0,5.0,97,-99.99,,,-99.99,,2013-01-28 15:52:00,
2013-01-28 11:03:00,35.0,34.0,-100.00,NE,45,4.0,6.0,97,-99.99,,,-99.99,,2013-01-28 16:03:00,
2013-01-28 11:12:00,35.0,34.0,-100.00,ENE,62,4.0,5.0,97,-99.99,,,-99.99,,2013-01-28 16:12:00,
2013-01-28 11:21:00,35.0,34.0,-100.00,ENE,68,5.0,6.0,97,-99.99,,,-99.99,,2013-01-28 16:21:00,
2013-01-28 11:30:00,41.0,40.0,-100.00,ENE,64,4.0,5.0,95,-99.99,,,-99.99,,2013-01-28 16:30:00,
2013-01-28 11:32:00,36.0,35.0,-100.00,ENE,71,4.0,5.0,97,-99.99,,,-99.99,,2013-01-28 16:32:00,
2013-01-28 11:42:00,37.0,36.0,-100.00,ENE,69,3.0,5.0,96,-99.99,,,-99.99,,2013-01-28 16:42:00,
2013-01-28 11:52:00,39.0,38.0,-100.00,ENE,59,3.0,5.0,96,-99.99,,,-99.99,,2013-01-28 16:52:00,
2013-01-28 12:01:00,41.0,40.0,-100.00,ENE,64,4.0,5.0,95,-99.99,,,-99.99,,2013-01-28 17:01:00,
2013-01-28 12:11:00,41.0,40.0,-100.00,ENE,64,4.0,5.0,95,-99.99,,,-99.99,,2013-01-28 17:11:00,
2013-01-28 12:22:00,41.0,40.0,-100.00,ENE,64,4.0,5.0,95,-99.99,,,-99.99,,2013-01-28 17:22:00,
2013-01-28 13:02:00,51.0,38.0,-100.00,SSW,204,3.0,4.0,60,-99.99,,,-99.99,,2013-01-28 18:02:00,
2013-01-28 13:12:00,52.0,37.0,-100.00,SSW,196,3.0,5.0,57,-99.99,,,-99.99,,2013-01-28 18:12:00,
2013-01-28 13:23:00,52.0,35.0,-100.00,SSW,198,3.0,5.0,53,-99.99,,,-99.99,,2013-01-28 18:23:00,
2013-01-28 13:33:00,53.0,33.0,-100.00,SSW,198,2.0,4.0,46,-99.99,,,-99.99,,2013-01-28 18:33:00,
2013-01-28 13:42:00,53.0,34.0,-100.00,SW,219,3.0,6.0,48,-99.99,,,-99.99,,2013-01-28 18:42:00,
2013-01-28 13:52:00,53.0,33.0,-100.00,South,177,2.0,6.0,46,-99.99,,,-99.99,,2013-01-28 18:52:00,
2013-01-28 14:01:00,55.0,33.0,-100.00,SSW,213,3.0,6.0,43,-99.99,,,-99.99,,2013-01-28 19:01:00,
2013-01-28 14:12:00,54.0,33.0,-100.00,WSW,239,3.0,9.0,44,-99.99,,,-99.99,,2013-01-28 19:12:00,
2013-01-28 14:22:00,54.0,32.0,-100.00,East,89,1.0,4.0,43,-99.99,,,-99.99,,2013-01-28 19:22:00,
2013-01-28 14:32:00,55.0,31.0,-100.00,West,271,3.0,10.0,40,-99.99,,,-99.99,,2013-01-28 19:32:00,
2013-01-28 14:42:00,54.0,31.0,-100.00,SW,232,6.0,11.0,41,-99.99,,,-99.99,,2013-01-28 19:42:00,
2013-01-28 14:52:00,55.0,31.0,-100.00,WSW,253,4.0,7.0,40,-99.99,,,-99.99,,2013-01-28 19:52:00,
2013-01-28 15:02:00,54.0,29.0,-100.00,NNW,331,5.0,9.0,38,-99.99,,,-99.99,,2013-01-28 20:02:00,
2013-01-28 15:11:00,55.0,29.0,-100.00,NW,320,4.0,12.0,37,-99.99,,,-99.99,,2013-01-28 20:11:00,
2013-01-28 15:21:00,54.0,30.0,-100.00,WNW,289,6.0,11.0,39,-99.99,,,-99.99,,2013-01-28 20:21:00,
2013-01-28 15:32:00,55.0,30.0,-100.00,WSW,248,4.0,8.0,38,-99.99,,,-99.99,,2013-01-28 20:32:00,
2013-01-28 15:42:00,55.0,31.0,-100.00,WNW,299,4.0,8.0,39,-99.99,,,-99.99,,2013-01-28 20:42:00,
2013-01-28 15:52:00,55.0,31.0,-100.00,West,274,6.0,9.0,39,-99.99,,,-99.99,,2013-01-28 20:52:00,
2013-01-28 16:02:00,56.0,31.0,-100.00,SW,235,5.0,11.0,39,-99.99,,,-99.99,,2013-01-28 21:02:00,
2013-01-28 16:11:00,56.0,31.0,-100.00,NW,310,5.0,11.0,38,-99.99,,,-99.99,,2013-01-28 21:11:00,
2013-01-28 16:22:00,56.0,31.0,-100.00,WNW,297,6.0,10.0,39,-99.99,,,-99.99,,2013-01-28 21:22:00,
2013-01-28 16:33:00,56.0,32.0,-100.00,WNW,292,5.0,10.0,40,-99.99,,,-99.99,,2013-01-28 21:33:00,
2013-01-28 16:42:00,56.0,33.0,-100.00,West,276,4.0,13.0,41,-99.99,,,-99.99,,2013-01-28 21:42:00,
2013-01-28 16:52:00,56.0,31.0,-100.00,NW,314,5.0,10.0,39,-99.99,,,-99.99,,2013-01-28 21:52:00,
2013-01-28 17:01:00,56.0,31.0,-100.00,NW,311,5.0,10.0,39,-99.99,,,-99.99,,2013-01-28 22:01:00,
2013-01-28 17:11:00,56.0,30.0,-100.00,WNW,298,6.0,11.0,37,-99.99,,,-99.99,,2013-01-28 22:11:00,
2013-01-28 17:22:00,57.0,30.0,-100.00,WNW,292,7.0,12.0,36,-99.99,,,-99.99,,2013-01-28 22:22:00,
2013-01-28 17:32:00,57.0,33.0,-100.00,WSW,257,10.0,19.0,40,-99.99,,,-99.99,,2013-01-28 22:32:00,
2013-01-28 17:42:00,57.0,33.0,-100.00,WSW,257,10.0,19.0,40,-99.99,,,-99.99,,2013-01-28 22:42:00,
2013-01-28 17:52:00,56.0,32.0,-100.00,WSW,245,11.0,20.0,40,-99.99,,,-99.99,,2013-01-28 22:52:00,
2013-01-28 18:01:00,56.0,33.0,-100.00,WSW,244,11.0,18.0,41,-99.99,,,-99.99,,2013-01-28 23:01:00,
2013-01-28 18:11:00,56.0,33.0,-100.00,WSW,241,11.0,16.0,41,-99.99,,,-99.99,,2013-01-28 23:11:00,
2013-01-28 18:22:00,56.0,34.0,-100.00,WSW,257,10.0,17.0,43,-99.99,,,-99.99,,2013-01-28 23:22:00,
2013-01-28 18:32:00,56.0,34.0,-100.00,West,262,10.0,18.0,44,-99.99,,,-99.99,,2013-01-28 23:32:00,
2013-01-28 18:42:00,56.0,34.0,-100.00,West,262,10.0,18.0,44,-99.99,,,-99.99,,2013-01-28 23:42:00,
2013-01-28 18:52:00,56.0,34.0,-100.00,WSW,251,9.0,15.0,44,-99.99,,,-99.99,,2013-01-28 23:52:00,
2013-01-28 19:02:00,56.0,33.0,-100.00,WSW,251,10.0,17.0,41,-99.99,,,-99.99,,2013-01-29 00:02:00,
2013-01-28 19:11:00,55.0,31.0,-100.00,West,263,11.0,17.0,40,-99.99,,,-99.99,,2013-01-29 00:11:00,
2013-01-28 19:21:00,55.0,34.0,-100.00,WSW,254,8.0,14.0,45,-99.99,,,-99.99,,2013-01-29 00:21:00,
2013-01-28 19:32:00,55.0,35.0,-100.00,WSW,254,7.0,13.0,46,-99.99,,,-99.99,,2013-01-29 00:32:00,
2013-01-28 19:41:00,55.0,36.0,-100.00,WSW,248,6.0,14.0,48,-99.99,,,-99.99,,2013-01-29 00:41:00,
2013-01-28 19:52:00,55.0,37.0,-100.00,WSW,237,6.0,12.0,50,-99.99,,,-99.99,,2013-01-29 00:52:00,
2013-01-28 20:01:00,55.0,38.0,-100.00,WSW,240,5.0,12.0,52,-99.99,,,-99.99,,2013-01-29 01:01:00,
2013-01-28 20:11:00,55.0,38.0,-100.00,West,269,2.0,6.0,52,-99.99,,,-99.99,,2013-01-29 01:11:00,
2013-01-28 20:22:00,54.0,37.0,-100.00,West,279,3.0,7.0,52,-99.99,,,-99.99,,2013-01-29 01:22:00,
2013-01-28 20:32:00,54.0,37.0,-100.00,West,279,3.0,7.0,52,-99.99,,,-99.99,,2013-01-29 01:32:00,
2013-01-28 20:42:00,53.0,37.0,-100.00,NNW,337,3.0,7.0,54,-99.99,,,-99.99,,2013-01-29 01:42:00,
2013-01-28 20:52:00,52.0,37.0,-100.00,NE,34,2.0,4.0,56,-99.99,,,-99.99,,2013-01-29 01:52:00,
2013-01-28 21:02:00,51.0,38.0,-100.00,NE,46,3.0,4.0,60,-99.99,,,-99.99,,2013-01-29 02:02:00,
2013-01-28 21:11:00,50.0,37.0,-100.00,NE,43,3.0,4.0,61,-99.99,,,-99.99,,2013-01-29 02:11:00,
2013-01-28 21:21:00,50.0,37.0,-100.00,NE,50,3.0,4.0,61,-99.99,,,-99.99,,2013-01-29 02:21:00,
2013-01-28 21:32:00,50.0,37.0,-100.00,NE,48,4.0,5.0,61,-99.99,,,-99.99,,2013-01-29 02:32:00,
2013-01-28 21:41:00,47.0,37.0,-100.00,NE,52,5.0,7.0,67,-99.99,,,-99.99,,2013-01-29 02:41:00,
2013-01-28 21:52:00,46.0,37.0,-100.00,NE,46,5.0,8.0,72,-99.99,,,-99.99,,2013-01-29 02:52:00,
2013-01-28 22:02:00,45.0,37.0,-100.00,NE,44,5.0,6.0,74,-99.99,,,-99.99,,2013-01-29 03:02:00,
2013-01-28 22:11:00,44.0,37.0,-100.00,NE,38,4.0,6.0,76,-99.99,,,-99.99,,2013-01-29 03:11:00,
2013-01-28 22:21:00,44.0,37.0,-100.00,NE,41,4.0,6.0,77,-99.99,,,-99.99,,2013-01-29 03:21:00,
2013-01-28 22:31:00,43.0,37.0,-100.00,NE,41,4.0,6.0,78,-99.99,,,-99.99,,2013-01-29 03:31:00,
2013-01-28 22:41:00,42.0,36.0,-100.00,NE,48,4.0,5.0,80,-99.99,,,-99.99,,2013-01-29 03:41:00,
2013-01-28 22:52:00,42.0,37.0,-100.00,NE,52,4.0,6.0,82,-99.99,,,-99.99,,2013-01-29 03:52:00,
2013-01-28 23:01:00,41.0,36.0,-100.00,ENE,58,4.0,6.0,83,-99.99,,,-99.99,,2013-01-29 04:01:00,
2013-01-28 23:11:00,41.0,36.0,-100.00,ENE,58,4.0,6.0,83,-99.99,,,-99.99,,2013-01-29 04:11:00,
2013-01-28 23:21:00,40.0,36.0,-100.00,ENE,57,4.0,6.0,84,-99.99,,,-99.99,,2013-01-29 04:21:00,
2013-01-28 23:32:00,39.0,35.0,-100.00,NE,56,4.0,5.0,86,-99.99,,,-99.99,,2013-01-29 04:32:00,
2013-01-28 23:51:00,39.0,35.0,-100.00,ENE,57,4.0,6.0,86,-99.99,,,-99.99,,2013-01-29 04:51:00,